Regional Weather Roundup
Issued by NWS

Home | Current Version | Previous Version | Graphics & Text | Print | Product List | Glossary On
Versions: 1 2 3 4 5 6 7 8 9 10 11 12 13 14 15 16 17 18 19 20 21 22 23 24 25 26 27 28 29 30 31 32 33 34 35 36 37 38 39 40 41 42 43 44 45 46 47 48 49 50
000
ASUS43 KFSD 052010
RWRSD

WEATHER ROUNDUP FOR SOUTH DAKOTA
NATIONAL WEATHER SERVICE SIOUX FALLS SD
300 PM CDT THU MAY 05 2016

NOTE: "FAIR" INDICATES FEW OR NO CLOUDS BELOW 12,000 FEET WITH NO
SIGNIFICANT WEATHER AND/OR OBSTRUCTIONS TO VISIBILITY.


SDZ001>005-009-010-012>017-052100-
NORTHWEST AND NORTH CENTRAL SOUTH DAKOTA

CITY           SKY/WX    TMP DP  RH WIND       PRES   REMARKS
BUFFALO          N/A     84  38  19 MISG      29.83F
FAITH            N/A     80  50  34 S9        29.89S
MOBRIDGE       SUNNY     87  42  20 S17       29.83F
$$

SDZ012>016-024>037-041>051-057-063-072>074-052100-
SOUTHWEST AND SOUTH CENTRAL SOUTH DAKOTA

CITY           SKY/WX    TMP DP  RH WIND       PRES   REMARKS
RAPID CTY ARPT SUNNY     83  47  28 SE10G17   29.91F
PIERRE         SUNNY     86  50  28 S15       29.87F
CUSTER         CLOUDY    78  26  14 SW8G20    30.03F
ELLSWORTH AFB  SUNNY     83  47  28 SE14      29.90F
PHILIP         SUNNY     86  49  27 S7        29.86F
PINE RIDGE     SUNNY     84  41  21 W8G20     29.93F
WINNER         FAIR      85  47  26 S15       29.93F
$$

SDZ004>011-016>023-039-040-052100-
NORTHEAST SOUTH DAKOTA

CITY           SKY/WX    TMP DP  RH WIND       PRES   REMARKS
ABERDEEN       SUNNY     88  33  14 SW14G24   29.88F
WATERTOWN      SUNNY     82  42  24 SW16      29.94F
BROOKINGS      SUNNY     79  42  26 S15       29.97F
SISSETON         N/A     86  41  20 W14       29.88F
$$

SDZ017-020-022-023-036>040-048>070-052100-
SOUTHEAST SOUTH DAKOTA

CITY           SKY/WX    TMP DP  RH WIND       PRES   REMARKS
SIOUX FALLS    SUNNY     74  50  42 S10       30.00F
HURON          SUNNY     83  45  26 S15       29.93F
CHAMBERLAIN    SUNNY     83  51  32 S12       29.94F
MITCHELL       SUNNY     82  45  27 S9        29.96F
YANKTON        SUNNY     79  45  29 S10       29.98F
$$

ABBREVIATIONS USED IN REMARKS
   TC - TEMPERATURE IN CELSIUS
  WCI - WIND CHILL INDEX
   HX - HEAT INDEX
  VSB - VISIBILITY




USA.gov is the U.S. government's official web portal to all federal, state and local government web resources and services.